Date String (YYYY-MM-DD hh:mm:ss) UTC,Instrument flags,Ambient pressure (hPa),Sample flow (lpm),Bypass flow (lpm),Sample temperature (°C),Ambient temperature (°C),ASC tube jacket temperature (°C),LED temperature (°C),Box temperature (°C),Sample RH (%),Span deviation,Mass concentration (μg/m³),Mass concentration (μg/m³),Mass concentration (μg/m³)
DateTimeUTC,F1_M11,P_M11,Q1_M11,Q2_M11,T1_M11,T2_M11,T3_M11,T4_M11,T5_M11,U1_M11,ZSPAN_M11,X0_M11,X2_M11,X1_M11
2022-07-14 13:00:00,,0830.5,4.99,0.00,29.6,27.4,00.0,38.4,31.4,24.7,0000.0,0009.31,0004.01,0003.31
2022-07-14 13:01:00,,0830.5,5.00,0.00,29.6,27.6,00.0,38.4,31.4,24.6,0000.0,0009.60,0004.06,0003.33
2022-07-14 13:02:00,,0830.5,5.00,0.00,29.6,27.8,00.0,38.4,31.4,24.8,0000.0,0010.06,0004.12,0003.36
2022-07-14 13:03:00,,0830.6,5.01,0.00,29.6,27.9,00.0,38.4,31.4,25.0,0000.0,0010.03,0004.14,0003.37
2022-07-14 13:04:00,,0830.6,4.99,0.00,29.6,28.1,00.0,38.4,31.5,25.5,0000.0,0009.74,0004.14,0003.39
2022-07-14 13:05:00,,0830.6,5.00,0.00,29.7,28.2,00.0,38.4,31.5,25.7,0000.0,0009.94,0004.15,0003.41
2022-07-14 13:06:00,,0830.6,4.99,0.00,29.7,28.3,00.0,38.4,31.5,26.0,0000.0,0009.97,0004.17,0003.43
2022-07-14 13:07:00,,0830.6,5.01,0.00,29.7,28.4,00.0,38.5,31.6,25.4,0000.0,0010.15,0004.22,0003.45
2022-07-14 13:08:00,,0830.8,4.99,0.00,29.7,28.5,00.0,38.5,31.6,25.6,0000.0,0010.29,0004.24,0003.48
2022-07-14 13:09:00,,0830.8,5.01,0.00,29.8,28.6,00.0,38.5,31.7,25.7,0000.0,0010.41,0004.24,0003.51
2022-07-14 13:10:00,,0830.8,5.00,0.00,29.8,28.7,00.0,38.5,31.7,25.8,0000.0,0010.94,0004.26,0003.54
2022-07-14 13:11:00,,0830.8,4.99,0.00,29.8,28.8,00.0,38.5,31.8,25.7,0000.0,0011.35,0004.27,0003.56
2022-07-14 13:12:00,,0830.8,5.01,0.00,29.8,28.8,00.0,38.5,31.8,26.0,0000.0,0011.86,0004.26,0003.58
2022-07-14 13:13:00,,0830.8,5.00,0.00,29.8,28.2,00.0,38.5,31.7,25.9,0000.0,0011.88,0004.24,0003.61
2022-07-14 13:14:00,,0830.8,4.99,0.00,29.8,27.5,00.0,38.4,31.6,26.1,0000.0,0012.01,0004.24,0003.63
2022-07-14 13:15:00,,0830.8,5.00,0.00,29.7,27.3,00.0,38.4,31.5,25.8,0000.0,0012.42,0004.26,0003.66
2022-07-14 13:16:00,,0830.8,5.00,0.00,29.7,27.3,00.0,38.4,31.4,25.6,0000.0,0012.18,0004.32,0003.72
2022-07-14 13:17:00,,0830.8,4.99,0.00,29.6,27.4,00.0,38.4,31.4,25.9,0000.0,0011.99,0004.37,0003.79
2022-07-14 13:18:00,,0830.8,5.00,0.00,29.6,27.6,00.0,38.4,31.4,25.9,0000.0,0012.35,0004.44,0003.85
2022-07-14 13:19:00,,0830.8,5.00,0.00,29.6,27.8,00.0,38.4,31.4,26.0,0000.0,0013.12,0004.52,0003.90
2022-07-14 13:20:00,,0830.8,5.01,0.00,29.6,27.9,00.0,38.4,31.4,26.1,0000.0,0013.45,0004.59,0003.94
2022-07-14 13:21:00,,0830.7,5.00,0.00,29.6,28.1,00.0,38.4,31.5,26.1,0000.0,0013.27,0004.67,0003.98
2022-07-14 13:22:00,,0830.8,4.99,0.00,29.6,28.2,00.0,38.4,31.5,25.8,0000.0,0012.65,0004.71,0004.04
2022-07-14 13:23:00,,0830.9,5.01,0.00,29.7,28.3,00.0,38.4,31.5,25.7,0000.0,0011.93,0004.76,0004.09
2022-07-14 13:24:00,,0830.9,5.00,0.00,29.7,28.4,00.0,38.4,31.6,25.7,0000.0,0012.24,0004.87,0004.14
2022-07-14 13:25:00,,0830.9,4.99,0.00,29.7,28.5,00.0,38.5,31.6,25.6,0000.0,0012.90,0005.04,0004.22
2022-07-14 13:26:00,,0830.9,5.01,0.00,29.7,28.6,00.0,38.5,31.7,25.6,0000.0,0013.24,0005.11,0004.27
2022-07-14 13:27:00,,0830.9,4.99,0.00,29.8,28.7,00.0,38.5,31.7,25.9,0000.0,0013.51,0005.12,0004.28
2022-07-14 13:28:00,,0830.9,5.01,0.00,29.8,28.8,00.0,38.5,31.7,25.1,0000.0,0013.94,0005.23,0004.34
2022-07-14 13:29:00,,0830.8,5.00,0.00,29.8,28.5,00.0,38.5,31.8,25.2,0000.0,0013.72,0005.32,0004.43
2022-07-14 13:30:00,,0830.8,5.00,0.00,29.8,27.8,00.0,38.4,31.6,25.4,0000.0,0012.83,0005.38,0004.51
2022-07-14 13:31:00,,0830.7,5.00,0.00,29.8,27.3,00.0,38.4,31.5,25.5,0000.0,0012.92,0005.45,0004.57
2022-07-14 13:32:00,,0830.8,4.99,0.00,29.7,27.4,00.0,38.4,31.4,25.1,0000.0,0013.52,0005.55,0004.66
2022-07-14 13:33:00,,0830.9,5.01,0.00,29.6,27.5,00.0,38.4,31.4,25.4,0000.0,0013.78,0005.67,0004.73
2022-07-14 13:34:00,,0830.9,5.01,0.00,29.6,27.6,00.0,38.4,31.4,25.5,0000.0,0013.91,0005.75,0004.79
2022-07-14 13:35:00,,0830.9,5.00,0.00,29.6,27.8,00.0,38.4,31.4,25.3,0000.0,0013.67,0005.80,0004.85
2022-07-14 13:36:00,,0830.9,5.01,0.00,29.6,27.9,00.0,38.4,31.4,24.8,0000.0,0012.91,0005.76,0004.88
2022-07-14 13:37:00,,0830.9,4.99,0.00,29.6,28.1,00.0,38.4,31.4,25.0,0000.0,0012.63,0005.78,0004.92
2022-07-14 13:38:00,,0830.9,5.01,0.00,29.6,28.2,00.0,38.4,31.5,25.3,0000.0,0012.69,0005.86,0004.97
2022-07-14 13:39:00,,0830.9,5.01,0.00,29.7,28.3,00.0,38.4,31.5,25.6,0000.0,0013.33,0005.89,0004.98
2022-07-14 13:40:00,,0830.9,4.99,0.00,29.7,28.4,00.0,38.4,31.6,25.4,0000.0,0015.29,0006.05,0004.97
2022-07-14 13:41:00,,0830.9,5.00,0.00,29.7,28.5,00.0,38.4,31.6,24.6,0000.0,0016.02,0006.14,0004.96
2022-07-14 13:42:00,,0831.0,5.02,0.00,29.7,28.6,00.0,38.5,31.7,24.6,0000.0,0016.22,0006.24,0004.97
2022-07-14 13:43:00,,0830.9,4.99,0.00,29.8,28.7,00.0,38.5,31.7,24.5,0000.0,0015.97,0006.28,0004.95
2022-07-14 13:44:00,,0830.9,5.00,0.00,29.8,28.7,00.0,38.5,31.7,24.6,0000.0,0016.49,0006.27,0004.94
2022-07-14 13:45:00,,0830.9,4.99,0.00,29.8,28.2,00.0,38.4,31.7,24.2,0000.0,0016.73,0006.29,0004.93
2022-07-14 13:46:00,,0830.9,5.01,0.00,29.8,27.6,00.0,38.4,31.6,24.0,0000.0,0016.94,0006.27,0004.93
2022-07-14 13:47:00,,0830.9,5.00,0.00,29.7,27.4,00.0,38.4,31.5,24.1,0000.0,0017.85,0006.32,0004.93
2022-07-14 13:48:00,,0830.9,5.00,0.00,29.7,27.5,00.0,38.4,31.4,24.3,0000.0,0017.40,0006.32,0004.91
2022-07-14 13:49:00,,0831.0,5.00,0.00,29.6,27.6,00.0,38.4,31.4,24.2,0000.0,0017.61,0006.31,0004.90
2022-07-14 13:50:00,,0831.0,5.00,0.00,29.6,27.8,00.0,38.4,31.4,24.2,0000.0,0016.76,0006.24,0004.88
2022-07-14 13:51:00,,0831.0,5.01,0.00,29.6,27.9,00.0,38.4,31.4,24.4,0000.0,0015.28,0006.02,0004.86
2022-07-14 13:52:00,,0831.0,4.99,0.00,29.6,28.1,00.0,38.4,31.5,24.4,0000.0,0014.46,0005.88,0004.83
2022-07-14 13:53:00,,0831.0,5.00,0.00,29.7,28.2,00.0,38.4,31.5,24.3,0000.0,0013.79,0005.76,0004.81
2022-07-14 13:54:00,,0831.0,5.01,0.00,29.7,28.3,00.0,38.4,31.5,24.0,0000.0,0013.14,0005.65,0004.78
2022-07-14 13:55:00,,0831.0,4.99,0.00,29.7,28.5,00.0,38.4,31.6,24.1,0000.0,0012.55,0005.57,0004.74
2022-07-14 13:56:00,,0830.9,4.99,0.00,29.7,28.6,00.0,38.5,31.7,23.8,0000.0,0012.73,0005.52,0004.70
2022-07-14 13:57:00,,0831.0,5.01,0.00,29.8,28.7,00.0,38.5,31.7,24.0,0000.0,0012.68,0005.47,0004.66
2022-07-14 13:58:00,,0830.9,5.00,0.00,29.8,28.7,00.0,38.5,31.7,23.7,0000.0,0011.87,0005.38,0004.62
2022-07-14 13:59:00,,0831.0,4.99,0.00,29.8,28.5,00.0,38.5,31.7,23.6,0000.0,0011.59,0005.32,0004.59
